User: anonymous   Login
Location: Baix
(44.7118°N, 4.7648°E)
Time: 15:53:02
(UTC+00:00)
Language:

S-56A Canister/Altair - Orbit

View from above orbital plane
View from above orbital plane
View from above satellite
View from above satellite

Ground track
Ground track

The orbit data is extracted from the following two-line orbital elements,

1 00082U 61004B   21131.82025921 -.00000117  00000-0 -69161-4 0  9996
2 00082  38.8635  62.4733 1176512 228.4221 120.9612 12.26038016848116
Epoch (UTC): 11 May 2021 19:41:10
Eccentricity: 0.1176512
inclination: 38.8635°
perigee height: 631 km
apogee height: 2501 km
right ascension of ascending node: 62.4733°
argument of perigee: 228.4221°
revolutions per day: 12.26038016
mean anomaly at epoch: 120.9612°
orbit number at epoch: 84811

The dashed part of the orbit path shows where the satellite is in the earth's shadow,  

DLR